Dewpoint
49 48 48 48 47 47 47 47 47 46 48 52 53 52 51 53 52 51 45 41 51 51 55 52 52 51 50 48 47 49 39 35 33 33 32 38 39 43 44 36 39 41 45 53 61
45 45 45 46 46 46 45 46 46 47 46 45 48 52 52 49 49 46 46 47 50 54 53 50 49 49 46 44 46 44 38 34 38 38 37 39 39 41 38 39 40 44 44 56 61
44 44 45 43 42 42 42 43 43 43 44 45 45 45 52 49 42 30 46 49 49 55 54 50 50 48 43 44 43 44 37 37 38 42 43 41 41 43 39 36 37 39 42 58 60
42 42 43 42 42 42 43 43 43 43 44 44 45 44 45 49 8 31 53 55 52 53 53 51 49 47 41 40 44 40 42 42 41 41 39 39 41 41 41 38 37 42 43 55 58
41 41 42 41 42 41 41 42 42 43 43 44 44 43 46 43 40 41 43 44 53 53 50 50 46 45 41 42 43 42 41 42 43 42 42 43 42 41 41 42 44 44 42 50 56
41 40 40 40 40 41 41 41 41 41 41 43 44 43 42 36 41 42 40 44 47 52 51 50 48 46 43 41 39 42 42 41 42 42 43 40 40 42 41 42 43 44 43 45 56
40 40 40 40 40 40 40 40 40 42 43 45 45 42 38 37 41 41 43 46 47 53 50 50 49 45 44 41 42 42 40 41 42 43 42 44 41 40 42 42 42 42 45 44 55
43 42 41 39 40 40 40 40 40 37 37 46 45 43 34 40 40 41 43 42 42 42 53 52 51 47 45 44 42 39 40 34 36 40 42 42 33 38 43 43 42 42 44 44 48
40 39 39 39 39 39 41 35 35 35 48 48 44 39 33 41 41 42 43 41 39 40 50 52 51 45 43 40 36 37 31 33 33 37 40 42 34 36 38 42 42 41 42 46 44
41 41 40 39 39 40 36 33 35 47 45 45 41 36 37 33 38 43 43 42 40 40 43 46 46 40 39 36 27 28 31 31 31 34 37 38 38 39 39 41 41 41 42 42 46
43 42 41 40 39 39 33 31 28 26 30 34 34 36 35 37 38 41 42 41 40 40 36 41 37 33 34 34 33 30 32 30 32 35 36 36 36 36 39 40 41 40 41 41 42
43 42 41 40 39 38 33 30 29 31 27 29 29 27 29 34 35 35 42 37 37 33 36 35 32 33 35 35 35 34 33 31 31 36 36 35 35 37 38 40 40 41 41 41 42
41 41 40 40 38 34 33 30 34 34 28 26 30 31 31 32 29 31 40 37 34 32 33 30 29 33 33 34 33 33 32 31 30 34 36 35 33 34 36 38 40 41 41 41 41
40 41 40 39 35 35 29 31 34 35 22 19 29 35 36 36 33 36 37 36 34 30 30 31 32 31 32 33 34 30 35 35 34 31 26 34 23 27 31 34 39 40 41 41 41
37 39 39 39 37 33 28 32 35 34 8 11 25 35 24 34 33 33 37 36 31 32 32 25 31 31 31 32 34 32 30 29 30 29 29 28 27 24 26 31 35 40 41 42 41
37 38 39 38 36 34 33 33 35 21 8 17 25 15 15 18 23 34 35 35 34 32 32 26 31 31 33 33 33 33 30 31 30 29 22 23 26 20 23 28 30 35 40 42 42
37 39 38 35 29 31 32 30 17 11 15 17 15 13 14 22 24 28 31 31 28 26 26 32 30 32 31 29 32 31 29 21 19 19 16 18 25 23 23 25 29 30 38 41 42
38 38 38 35 33 32 25 14 8 3 16 15 11 11 18 17 17 18 27 28 31 29 26 20 19 32 32 30 26 29 29 21 13 13 12 21 20 21 25 25 26 29 33 40 43
39 35 33 31 31 30 18 4 2 16 18 14 13 12 11 10 14 14 15 20 21 22 18 23 21 31 32 31 28 29 26 27 22 24 21 21 25 25 27 27 27 27 31 39 41
35 31 29 32 31 26 16 7 11 21 17 18 12 12 10 17 13 13 17 23 20 22 23 22 23 24 27 30 29 25 26 22 23 16 13 14 20 19 21 23 26 26 30 37 42
31 27 27 31 30 23 12 13 18 20 16 16 13 14 17 13 15 15 18 20 23 13 20 22 25 23 25 27 26 28 28 25 22 21 14 14 17 20 19 19 19 20 21 27 34
32 21 27 27 17 19 16 20 22 19 17 15 18 18 13 14 15 15 14 14 23 14 16 23 21 21 22 25 27 27 26 29 21 18 19 20 19 21 24 25 24 27 27 27 26
27 25 31 26 11 10 16 17 21 16 16 15 13 14 14 14 11 13 13 11 13 13 16 24 16 14 22 26 27 26 26 28 27 28 21 16 15 23 25 27 30 31 33 34 30
29 20 21 23 22 18 17 15 15 17 16 17 16 16 13 12 13 12 12 11 14 13 21 20 19 14 9 14 20 19 25 28 28 24 21 22 27 28 28 28 29 33 36 38 35
28 22 22 18 20 21 22 19 17 15 19 18 14 14 13 13 13 11 12 14 13 12 13 14 11 10 9 12 15 18 24 25 28 28 24 21 22 25 27 28 31 33 38 39 38
24 23 27 23 22 21 20 19 17 16 18 15 15 14 16 16 14 15 17 15 14 11 13 14 7 6 13 10 15 13 14 13 23 27 27 31 29 27 27 30 31 30 33 40 41
33 33 28 20 21 19 17 19 16 17 18 18 18 20 17 17 19 21 18 17 17 15 14 13 12 10 8 9 13 6 21 21 23 27 27 26 26 28 28 28 28 31 35 40 41
Wind_Speed
19 19 19 20 21 21 21 22 23 24 24 23 21 18 20 19 19 10 16 15 11 16 9 11 6 7 4 3 2 2 5 8 9 7 5 5 8 4 1 5 4 6 2 4 19
19 20 21 21 21 22 22 23 23 23 24 23 22 22 18 21 18 18 19 14 17 16 10 15 11 12 6 5 3 7 6 11 9 5 4 4 6 5 4 6 6 6 1 9 22
20 21 22 22 23 24 24 25 25 24 22 22 23 23 22 18 9 7 6 12 17 17 9 8 11 9 9 6 8 6 11 11 6 5 4 4 7 4 7 10 7 13 7 18 23
21 21 22 24 25 26 26 26 26 26 25 24 23 20 20 8 9 1 10 1 20 16 15 13 9 9 9 14 9 9 13 15 8 5 8 10 4 8 15 11 6 5 5 16 20
23 24 24 26 27 28 29 29 29 28 27 25 22 18 10 6 16 10 15 6 12 15 22 22 17 12 12 11 10 16 16 11 16 18 16 10 15 14 13 16 10 6 6 19 21
23 25 26 27 29 30 32 32 33 34 32 27 22 17 10 25 13 10 14 6 12 19 19 19 14 16 8 12 17 5 19 24 12 17 11 14 19 12 4 16 16 12 12 18 27
23 25 26 28 30 33 34 37 41 34 29 24 20 13 18 32 7 6 7 6 4 17 18 17 10 17 11 7 15 16 20 17 15 12 10 11 24 25 19 13 17 18 14 17 21
23 26 28 31 32 34 37 42 35 36 31 20 15 10 14 8 25 35 20 13 8 7 18 17 17 15 9 4 3 7 13 18 10 18 12 13 26 12 21 19 19 17 11 16 20
24 26 29 31 32 34 38 35 44 27 15 6 6 9 13 4 12 17 24 28 12 12 9 14 11 18 10 24 18 11 20 23 15 14 8 19 24 18 19 22 24 22 19 14 14
24 24 26 29 33 36 34 42 27 5 3 5 1 6 10 8 6 4 9 21 11 10 9 12 10 16 24 20 36 24 19 17 14 5 19 18 27 22 11 19 23 22 21 18 16
25 25 27 29 31 36 27 10 10 7 7 9 8 10 8 4 3 6 5 15 11 17 27 23 22 42 33 31 22 22 15 22 11 5 11 22 30 32 23 16 19 20 23 23 21
27 27 27 29 30 24 13 5 5 8 22 24 32 38 34 17 13 5 15 12 16 28 25 20 43 35 22 23 28 26 27 26 15 10 11 17 25 27 20 24 28 26 25 27 21
27 26 27 27 30 6 14 4 0 9 9 14 13 11 11 13 20 30 19 9 13 24 31 39 19 30 23 22 30 30 31 27 25 9 9 11 24 29 26 27 26 26 28 28 28
27 26 27 29 10 9 13 4 8 5 8 10 5 5 3 5 8 11 29 17 15 27 26 27 37 15 33 29 24 23 17 15 9 10 12 9 15 18 17 30 28 30 26 30 30
26 27 27 24 11 6 10 13 12 3 7 4 4 9 24 6 19 2 11 24 29 15 17 24 22 35 24 36 21 15 10 15 19 23 20 23 16 19 22 23 27 32 33 31 33
26 27 27 9 6 9 15 16 1 4 11 12 10 24 26 19 10 8 2 8 11 23 25 35 6 19 27 9 21 6 12 8 16 18 26 23 20 25 28 21 27 25 30 32 31
26 28 25 6 6 11 14 9 4 7 22 12 18 30 22 21 19 12 10 14 13 9 21 9 29 6 6 17 14 18 14 10 12 15 22 14 20 37 12 20 27 24 28 33 33
26 28 5 5 9 7 7 5 3 11 5 14 18 23 9 21 17 25 16 9 20 16 3 17 19 19 14 27 17 21 22 11 13 14 17 11 18 17 22 32 30 17 25 26 32
21 8 7 4 7 4 5 2 4 4 8 14 22 8 10 17 10 14 10 18 14 28 13 14 16 8 20 17 26 11 25 26 5 2 7 7 6 13 22 20 20 28 20 25 30
10 9 8 6 6 4 2 6 4 2 8 6 6 8 16 13 14 16 8 11 10 22 26 9 8 12 12 17 20 24 12 15 20 17 21 8 9 18 16 14 16 15 21 22 27
6 8 2 9 3 4 2 5 7 5 9 3 10 11 7 11 10 10 8 6 15 24 18 17 10 4 13 11 21 15 11 12 11 15 11 4 6 5 3 2 5 3 12 19 24
4 7 4 5 5 1 3 3 6 6 7 5 6 5 9 12 7 7 7 3 8 18 14 6 6 10 18 4 21 23 19 14 13 15 17 5 10 3 4 7 2 7 11 14 19
7 6 3 3 5 7 5 4 5 7 4 6 5 3 11 6 8 8 8 10 25 19 11 15 11 14 3 2 8 3 15 24 21 2 21 19 17 3 2 11 13 11 11 12 12
4 5 5 2 1 4 6 7 4 3 14 6 8 7 4 10 5 11 19 9 17 20 14 9 5 6 7 12 13 14 16 19 28 18 22 22 12 15 13 19 13 12 11 11 9
1 4 2 7 6 8 6 4 14 9 4 4 6 6 2 6 13 7 16 19 10 11 6 9 6 13 15 20 21 23 15 16 20 28 19 25 27 18 16 7 2 8 8 10 9
3 4 3 12 8 9 8 3 11 10 6 6 10 15 10 9 15 24 18 15 8 6 8 9 6 20 7 12 8 18 22 20 16 23 25 23 31 8 5 4 5 9 6 9 10
3 4 5 11 7 5 6 6 9 8 11 13 11 14 13 16 14 17 17 21 22 22 21 5 5 8 6 15 17 9 4 2 7 9 19 25 28 10 19 20 15 11 9 12 13
Wind_Direction
11 10 4 358 353 349 343 338 332 328 326 329 331 328 323 319 311 303 264 228 199 205 138 137 127 143 116 153 140 129 239 246 243 198 232 195 220 191 324 163 160 161 163 168 149
4 0 357 354 351 346 341 336 332 330 325 318 317 324 328 320 307 273 244 228 214 193 168 155 156 148 175 193 195 192 216 232 214 218 262 236 226 208 193 177 197 177 136 181 156
1 358 355 347 345 341 336 333 327 323 319 316 316 312 326 328 311 251 267 209 204 167 158 145 150 161 204 182 200 203 229 230 257 262 270 266 236 208 217 219 204 184 148 151 165
357 353 350 344 341 336 332 327 323 317 315 311 312 312 314 321 280 162 45 79 185 177 164 166 157 184 207 204 192 242 248 252 262 262 256 252 237 235 223 242 197 174 194 157 170
353 349 347 344 340 336 331 325 319 314 309 304 303 304 322 228 244 266 303 340 186 168 184 185 185 192 202 207 196 225 252 256 249 254 251 256 245 250 247 241 224 237 218 180 170
353 349 347 343 340 335 330 325 319 310 302 296 291 288 268 255 256 241 275 290 230 185 197 184 202 195 217 217 200 208 234 250 255 250 242 247 253 232 251 234 226 237 215 196 180
352 349 346 342 338 334 329 323 316 308 302 288 273 258 255 243 217 241 174 184 219 211 209 202 189 180 203 252 238 236 254 260 249 244 238 246 258 246 235 225 226 223 218 188 183
348 347 343 339 336 334 330 321 315 309 302 288 251 221 250 244 236 247 239 257 256 295 228 201 195 203 203 205 222 202 231 247 234 213 227 187 253 225 222 208 220 226 234 192 183
343 345 343 338 336 334 330 323 308 308 304 273 172 188 261 271 234 247 221 234 250 239 244 221 199 226 215 236 245 216 245 233 251 211 202 199 261 247 230 203 218 219 221 210 193
341 343 339 340 337 335 333 315 303 306 61 114 212 193 257 235 219 210 210 205 210 192 233 225 215 223 220 204 228 233 233 245 238 194 213 223 252 253 244 206 217 207 212 209 198
340 339 339 340 339 335 343 340 9 342 359 254 249 250 286 234 254 201 162 163 192 192 206 197 216 223 217 217 230 229 240 245 227 209 245 241 246 254 243 229 224 214 209 210 214
341 337 336 338 339 333 358 40 78 274 297 251 248 261 259 288 280 215 138 160 191 208 198 206 222 224 221 218 220 235 248 255 264 232 250 262 261 262 251 228 224 215 209 213 209
341 337 333 335 333 357 330 257 95 344 273 298 233 240 251 205 241 245 193 192 194 204 198 205 227 222 221 216 215 226 239 245 252 268 261 286 271 261 255 236 228 225 212 211 203
341 336 331 335 332 335 308 267 337 311 284 281 273 296 284 215 254 234 211 204 218 214 203 221 228 219 210 226 205 240 223 235 238 244 253 192 278 250 246 232 219 222 213 215 204
344 335 330 337 297 304 284 321 326 173 280 308 22 48 342 323 321 48 233 206 224 191 182 218 204 215 218 222 206 235 195 231 248 258 265 248 265 274 243 230 221 219 213 212 210
341 327 327 332 310 259 306 315 105 242 251 352 0 345 336 322 299 278 23 229 229 245 215 222 204 199 212 186 209 203 211 216 244 242 246 238 227 262 243 228 228 224 216 210 206
339 323 322 317 276 322 327 337 326 230 345 3 331 328 316 336 326 343 294 195 209 218 232 209 225 186 161 211 207 218 201 216 221 224 247 226 214 240 241 239 232 228 215 210 205
334 315 338 300 310 317 357 7 261 309 352 321 325 317 321 21 346 346 329 254 224 238 271 232 251 197 177 208 198 206 212 219 221 221 252 180 237 250 241 241 241 251 222 207 203
334 315 329 316 354 18 22 316 264 360 316 323 319 328 328 346 336 349 336 359 42 26 337 209 225 173 189 189 192 184 210 215 281 220 278 220 277 279 250 236 228 228 225 206 200
337 317 303 325 354 68 95 276 273 266 342 310 306 324 317 357 348 334 320 44 15 8 348 291 228 201 191 192 213 209 170 192 214 228 240 250 263 258 292 254 254 241 220 208 198
10 337 268 339 90 78 236 251 282 255 337 291 298 298 346 349 329 309 354 351 11 346 343 317 282 150 141 188 190 201 194 210 197 224 229 280 254 224 281 357 37 307 256 232 215
340 309 335 5 320 10 235 234 298 306 303 273 269 289 331 319 297 295 330 322 339 342 329 299 310 292 191 131 192 195 196 183 200 209 224 263 264 133 47 44 360 347 330 302 258
318 281 332 46 299 303 279 279 260 304 287 314 280 304 314 314 326 321 328 327 351 342 339 356 350 335 102 248 45 235 215 209 222 193 206 209 243 275 179 4 353 4 4 342 298
315 300 307 54 143 258 302 293 302 279 292 258 262 289 316 321 298 296 304 330 337 331 20 25 351 331 286 298 289 287 309 225 213 230 238 247 276 290 306 349 2 10 16 20 350
251 277 280 296 303 248 258 267 292 296 253 297 289 259 321 292 310 276 320 321 327 301 26 12 277 297 295 281 266 273 275 299 231 215 213 245 242 260 273 248 103 19 40 54 73
286 313 269 277 262 253 257 241 270 284 240 275 270 295 285 272 284 295 302 303 289 299 322 328 285 309 292 267 291 287 273 257 243 237 242 263 271 249 257 193 311 297 303 110 110
254 255 249 282 266 227 234 238 265 298 285 253 274 298 282 272 280 269 269 271 260 264 277 267 266 319 282 318 316 302 132 358 252 213 215 234 244 253 250 256 254 253 254 150 150